| time (UTC) | temp C | wind direction | speed KPH | gust KPH | rain 1hr cm | rain 24hr cm | rain mn cm | humidity % | barometer mb |
| 20260906075615 | 28 | 0.0 | 0.0 | 0.00 | 0.00 | 0.00 | 99 | 1729.4 | |
| 20260906073611 | 28 | 0.0 | 0.0 | 0.00 | 0.00 | 0.00 | 99 | 1728.7 | |
| 20260906071608 | 27 | 0.0 | 0.0 | 0.00 | 0.00 | 0.00 | 99 | 1726.5 | |
| 20260906065605 | 28 | 0.0 | 0.0 | 0.00 | 0.00 | 0.00 | 99 | 1729.6 | |
| 20260906063601 | 28 | 0.0 | 0.0 | 0.00 | 0.00 | 0.00 | 99 | 1730.4 | |
| 20260906061558 | 29 | 0.0 | 0.0 | 0.00 | 0.00 | 0.00 | 99 | 1731.0 | |
| 20260906055555 | 30 | 0.0 | 0.0 | 0.00 | 0.00 | 0.00 | 99 | 1735.2 | |
| 20260906053552 | 27 | 0.0 | 0.0 | 0.00 | 0.00 | 0.00 | 99 | 1725.9 | |
| 20260906051548 | 26 | 0.0 | 0.0 | 0.00 | 0.00 | 0.00 | 99 | 1724.0 | |
| 20260906045545 | 26 | 0.0 | 0.0 | 0.00 | 0.00 | 0.00 | 99 | 1723.3 | |
| 20260906043542 | 26 | 0.0 | 0.0 | 0.00 | 0.00 | 0.00 | 99 | 1722.7 | |
| 20260906041538 | 26 | 0.0 | 0.0 | 0.00 | 0.00 | 0.00 | 99 | 1722.7 | |
| 20260906035536 | 26 | 0.0 | 0.0 | 0.00 | 0.00 | 0.00 | 99 | 1722.4 | |
| 20260906033532 | 26 | 0.0 | 0.0 | 0.00 | 0.00 | 0.00 | 99 | 1722.2 | |
| 20260906031528 | 26 | 0.0 | 0.0 | 0.00 | 0.00 | 0.00 | 99 | 1722.4 | |
| 20260906025525 | 26 | 0.0 | 0.0 | 0.00 | 0.00 | 0.00 | 99 | 1723.2 | |
| 20260906023522 | 26 | 0.0 | 0.0 | 0.00 | 0.00 | 0.00 | 99 | 1723.4 | |
| 20260906021518 | 26 | 0.0 | 0.0 | 0.00 | 0.00 | 0.00 | 99 | 1723.2 | |
| 20260905220943 | 25 | 0.0 | 0.0 | 0.00 | 0.00 | 0.00 | 99 | ||
| 20260905214943 | 27 | 0.0 | 0.0 | 0.00 | 0.00 | 0.00 | 99 | ||
| 20260905212943 | 27 | 0.0 | 0.0 | 0.00 | 0.00 | 0.00 | 99 | ||
| 20260905210943 | 27 | 0.0 | 0.0 | 0.00 | 0.00 | 0.00 | 99 | ||
| 20260905204942 | 27 | 0.0 | 0.0 | 0.00 | 0.00 | 0.00 | 99 | ||
| 20260905202942 | 27 | 0.0 | 0.0 | 0.00 | 0.00 | 0.00 | 99 | ||
| 20260905200942 | 27 | 0.0 | 0.0 | 0.00 | 0.00 | 0.00 | 99 | ||
| 20260905194941 | 27 | 0.0 | 0.0 | 0.00 | 0.00 | 0.00 | 99 | ||
| 20260905192941 | 27 | 0.0 | 0.0 | 0.00 | 0.00 | 0.00 | 96 | ||
| 20260905190941 | 27 | 0.0 | 0.0 | 0.00 | 0.00 | 0.00 | 96 | ||
| 20260905184940 | 27 | 0.0 | 0.0 | 0.00 | 0.00 | 0.00 | 96 | ||
| 20260905182940 | 27 | 0.0 | 0.0 | 0.00 | 0.00 | 0.00 | 96 | ||
| 20260905180940 | 30 | 0.0 | 0.0 | 0.00 | 0.00 | 0.00 | 88 | ||
| 20260905174940 | 30 | 0.0 | 0.0 | 0.00 | 0.00 | 0.00 | 88 | ||
| 20260905172939 | 30 | 0.0 | 0.0 | 0.00 | 0.00 | 0.00 | 88 | ||
| 20260905170939 | 30 | 0.0 | 0.0 | 0.00 | 0.00 | 0.00 | 88 | ||
| 20260905164939 | 30 | 0.0 | 0.0 | 0.00 | 0.00 | 0.00 | 88 | ||
| 20260905162938 | 30 | 0.0 | 0.0 | 0.00 | 0.00 | 0.00 | 88 | ||
| 20260905160938 | 30 | 0.0 | 0.0 | 0.00 | 0.00 | 0.00 | 88 | ||
| 20260905154938 | 30 | 0.0 | 0.0 | 0.00 | 0.00 | 0.00 | 87 | 1734.4 | |
| 20260905152937 | 31 | 0.0 | 0.0 | 0.00 | 0.00 | 0.00 | 85 | 1736.0 | |
| 20260905150937 | 31 | 0.0 | 0.0 | 0.00 | 0.00 | 0.00 | 85 | 1735.6 | |
| 20260905144936 | 31 | 0.0 | 0.0 | 0.00 | 0.00 | 0.00 | 81 | 1736.9 | |
| 20260905142936 | 31 | 0.0 | 0.0 | 0.00 | 0.00 | 0.00 | 80 | 1737.0 | |
| 20260905140936 | 31 | 0.0 | 0.0 | 0.00 | 0.00 | 0.00 | 81 | 1736.4 | |
| 20260905134936 | 31 | 0.0 | 0.0 | 0.00 | 0.00 | 0.00 | 82 | 1735.6 | |
| 20260905132935 | 31 | 0.0 | 0.0 | 0.00 | 0.00 | 0.00 | 82 | 1737.0 | |
| 20260905130935 | 31 | 0.0 | 0.0 | 0.00 | 0.00 | 0.00 | 85 | 1735.8 | |
| 20260905124935 | 31 | 0.0 | 0.0 | 0.00 | 0.00 | 0.00 | 81 | 1736.8 | |
| 20260905122934 | 31 | 0.0 | 0.0 | 0.00 | 0.00 | 0.00 | 85 | 1736.3 | |
| 20260905120934 | 31 | 0.0 | 0.0 | 0.00 | 0.00 | 0.00 | 87 | 1736.7 | |
| 20260905114934 | 30 | 0.0 | 0.0 | 0.00 | 0.00 | 0.00 | 87 | 1734.5 | |
| 20260905112933 | 31 | 0.0 | 0.0 | 0.00 | 0.00 | 0.00 | 87 | 1736.5 | |
| 20260905110933 | 31 | 0.0 | 0.0 | 0.00 | 0.00 | 0.00 | 86 | 1735.7 | |
| 20260905104933 | 32 | 0.0 | 0.0 | 0.00 | 0.00 | 0.00 | 83 | 1740.0 | |
| 20260905102933 | 31 | 0.0 | 0.0 | 0.00 | 0.00 | 0.00 | 85 | 1735.8 | |
| 20260905100931 | 33 | 0.0 | 0.0 | 0.00 | 0.00 | 0.00 | 80 | 1743.8 | |
| 20260905094931 | 31 | 0.0 | 0.0 | 0.00 | 0.00 | 0.00 | 87 | 1735.8 | |
| 20260905092931 | 30 | 0.0 | 0.0 | 0.00 | 0.00 | 0.00 | 90 | 1733.3 | |
| 20260905090931 | 31 | 0.0 | 0.0 | 0.00 | 0.00 | 0.00 | 85 | 1736.2 | |
| 20260905084930 | 30 | 0.0 | 0.0 | 0.00 | 0.00 | 0.00 | 89 | 1734.6 | |
| 20260905082930 | 31 | 0.0 | 0.0 | 0.00 | 0.00 | 0.00 | 96 | 1736.3 | |
| 20260905080929 | 27 | 0.0 | 0.0 | 0.00 | 0.00 | 0.00 | 99 | 1727.6 |